Location: Killam
(52.7910°N, 111.8608°W)
Time: 11:06:41
(UTC+00:00)

SR - Pass Details

Date: 23 February 2026
Orbit: 573 x 848 km, 66.7° (Epoch: 7 March)

Event Time Altitude Azimuth Distance (km) Brightness Sun altitude
Exits shadow 10:05:03 12° 68° (ENE) 1,834 ? -38.1°
Drops below altitude 10° 10:05:35 10° 63° (ENE) 1,994 ? -38.0°
Sets 10:08:22 0° 48° (NE) 2,953 ? -37.7°
